Time,TemperatureF,DewpointF,PressureIn,WindDirection,WindDirectionDegrees,WindSpeedMPH,WindSpeedGustMPH,Humidity,HourlyPrecipIn,Conditions,Clouds,dailyrainin,SolarRadiationWatts/m^2,SoftwareType,DateUTC
2013-04-01 00:02:00,42.0,42.0,-100.00,SW,222,2.0,2.0,100,0.00,,,0.05,0.000000,,2013-04-01 05:02:00,
2013-04-01 00:12:00,42.0,42.0,-100.00,SW,222,2.0,2.0,100,0.00,,,0.05,0.000000,,2013-04-01 05:12:00,
2013-04-01 00:43:00,41.0,41.0,-100.00,South,187,2.0,3.0,100,0.00,,,0.05,0.000000,,2013-04-01 05:43:00,
2013-04-01 00:53:00,41.0,41.0,-100.00,South,187,2.0,3.0,100,0.00,,,0.05,0.000000,,2013-04-01 05:53:00,
2013-04-01 01:02:00,41.0,41.0,-100.00,South,187,2.0,3.0,100,0.00,,,0.05,0.000000,,2013-04-01 06:02:00,
2013-04-01 01:12:00,41.0,41.0,-100.00,South,187,2.0,3.0,100,0.00,,,0.05,0.000000,,2013-04-01 06:12:00,
2013-04-01 01:43:00,41.0,41.0,-100.00,SW,217,3.0,4.0,100,0.00,,,0.04,0.000000,,2013-04-01 06:43:00,
2013-04-01 01:53:00,41.0,41.0,-100.00,SW,217,3.0,4.0,100,0.00,,,0.04,0.000000,,2013-04-01 06:53:00,
2013-04-01 02:02:00,41.0,41.0,-100.00,SW,217,3.0,4.0,100,0.00,,,0.04,0.000000,,2013-04-01 07:02:00,
2013-04-01 02:12:00,41.0,41.0,-100.00,SW,217,3.0,4.0,100,0.00,,,0.04,0.000000,,2013-04-01 07:12:00,
2013-04-01 02:43:00,44.0,44.0,-100.00,SW,223,2.0,5.0,100,0.00,,,0.04,0.000000,,2013-04-01 07:43:00,
2013-04-01 02:53:00,44.0,44.0,-100.00,SW,223,2.0,5.0,100,0.00,,,0.04,0.000000,,2013-04-01 07:53:00,
2013-04-01 03:03:00,44.0,44.0,-100.00,SW,223,2.0,5.0,100,0.00,,,0.04,0.000000,,2013-04-01 08:03:00,
2013-04-01 03:12:00,44.0,44.0,-100.00,SW,223,2.0,5.0,100,0.00,,,0.04,0.000000,,2013-04-01 08:12:00,
2013-04-01 03:43:00,44.0,44.0,-100.00,NW,306,2.0,4.0,100,0.00,,,0.03,0.000000,,2013-04-01 08:43:00,
2013-04-01 03:53:00,44.0,44.0,-100.00,NW,306,2.0,4.0,100,0.00,,,0.03,0.000000,,2013-04-01 08:53:00,
2013-04-01 04:02:00,44.0,44.0,-100.00,NW,306,2.0,4.0,100,0.00,,,0.03,0.000000,,2013-04-01 09:02:00,
2013-04-01 04:12:00,44.0,44.0,-100.00,NW,306,2.0,4.0,100,0.00,,,0.03,0.000000,,2013-04-01 09:12:00,
2013-04-01 04:43:00,42.0,42.0,-100.00,WSW,247,2.0,4.0,100,0.00,,,0.03,0.000000,,2013-04-01 09:43:00,
2013-04-01 04:53:00,42.0,42.0,-100.00,WSW,247,2.0,4.0,100,0.00,,,0.03,0.000000,,2013-04-01 09:53:00,
2013-04-01 05:03:00,42.0,42.0,-100.00,WSW,247,2.0,4.0,100,0.00,,,0.03,0.000000,,2013-04-01 10:03:00,
2013-04-01 05:12:00,42.0,42.0,-100.00,WSW,247,2.0,4.0,100,0.00,,,0.03,0.000000,,2013-04-01 10:12:00,
2013-04-01 05:43:00,42.0,42.0,-100.00,West,270,1.0,4.0,100,0.00,,,0.03,0.000000,,2013-04-01 10:43:00,
2013-04-01 05:53:00,42.0,42.0,-100.00,West,270,1.0,4.0,100,0.00,,,0.03,0.000000,,2013-04-01 10:53:00,
2013-04-01 06:03:00,42.0,42.0,-100.00,West,270,1.0,4.0,100,0.00,,,0.03,0.000000,,2013-04-01 11:03:00,
2013-04-01 06:13:00,42.0,42.0,-100.00,West,270,1.0,4.0,100,0.00,,,0.03,0.000000,,2013-04-01 11:13:00,
2013-04-01 06:43:00,46.0,42.0,-100.00,North,352,6.0,17.0,85,0.00,,,0.03,0.000000,,2013-04-01 11:43:00,
2013-04-01 06:53:00,46.0,42.0,-100.00,North,352,6.0,17.0,85,0.00,,,0.03,0.000000,,2013-04-01 11:53:00,
2013-04-01 07:02:00,46.0,42.0,-100.00,North,352,6.0,17.0,85,0.00,,,0.03,0.000000,,2013-04-01 12:02:00,
2013-04-01 07:12:00,46.0,42.0,-100.00,North,352,6.0,17.0,85,0.00,,,0.03,0.000000,,2013-04-01 12:12:00,
2013-04-01 07:43:00,45.0,36.0,-100.00,North,350,8.0,13.0,70,0.00,,,0.03,16.000000,,2013-04-01 12:43:00,
2013-04-01 07:53:00,45.0,36.0,-100.00,North,350,8.0,13.0,70,0.00,,,0.03,16.000000,,2013-04-01 12:53:00,
2013-04-01 08:03:00,45.0,36.0,-100.00,North,350,8.0,13.0,70,0.00,,,0.03,16.000000,,2013-04-01 13:03:00,
2013-04-01 08:12:00,45.0,36.0,-100.00,North,350,8.0,13.0,70,0.00,,,0.03,16.000000,,2013-04-01 13:12:00,
2013-04-01 08:43:00,47.0,35.0,-100.00,North,353,8.0,16.0,64,0.00,,,0.03,158.000000,,2013-04-01 13:43:00,
2013-04-01 08:53:00,47.0,35.0,-100.00,North,353,8.0,16.0,64,0.00,,,0.03,158.000000,,2013-04-01 13:53:00,
2013-04-01 09:03:00,47.0,35.0,-100.00,North,353,8.0,16.0,64,0.00,,,0.03,158.000000,,2013-04-01 14:03:00,
2013-04-01 09:12:00,47.0,35.0,-100.00,North,353,8.0,16.0,64,0.00,,,0.03,158.000000,,2013-04-01 14:12:00,
2013-04-01 09:43:00,48.0,36.0,-100.00,NNW,348,9.0,15.0,63,0.00,,,0.03,321.000000,,2013-04-01 14:43:00,
2013-04-01 09:53:00,48.0,36.0,-100.00,NNW,348,9.0,15.0,63,0.00,,,0.03,321.000000,,2013-04-01 14:53:00,
2013-04-01 10:03:00,48.0,36.0,-100.00,NNW,348,9.0,15.0,63,0.00,,,0.03,321.000000,,2013-04-01 15:03:00,
2013-04-01 10:13:00,48.0,36.0,-100.00,NNW,348,9.0,15.0,63,0.00,,,0.03,321.000000,,2013-04-01 15:13:00,
2013-04-01 10:43:00,50.0,36.0,-100.00,NNE,13,9.0,17.0,58,0.00,,,0.03,521.000000,,2013-04-01 15:43:00,
2013-04-01 10:54:00,50.0,36.0,-100.00,NNE,13,9.0,17.0,58,0.00,,,0.03,521.000000,,2013-04-01 15:54:00,
2013-04-01 11:03:00,50.0,36.0,-100.00,NNE,13,9.0,17.0,58,0.00,,,0.03,521.000000,,2013-04-01 16:03:00,
2013-04-01 11:13:00,50.0,36.0,-100.00,NNE,13,9.0,17.0,58,0.00,,,0.03,521.000000,,2013-04-01 16:13:00,
2013-04-01 12:42:00,54.0,37.0,-100.00,North,357,7.0,17.0,52,-99.99,,,0.03,751.000000,,2013-04-01 17:42:00,
2013-04-01 12:53:00,54.0,37.0,-100.00,North,357,7.0,17.0,52,-99.99,,,0.03,751.000000,,2013-04-01 17:53:00,
2013-04-01 13:02:00,54.0,37.0,-100.00,North,357,7.0,17.0,52,-99.99,,,0.03,751.000000,,2013-04-01 18:02:00,
2013-04-01 13:12:00,54.0,37.0,-100.00,North,357,7.0,17.0,52,-99.99,,,0.03,751.000000,,2013-04-01 18:12:00,
2013-04-01 13:43:00,57.0,39.0,-100.00,NNW,337,7.0,14.0,51,0.00,,,0.03,788.000000,,2013-04-01 18:43:00,
2013-04-01 13:53:00,57.0,39.0,-100.00,NNW,337,7.0,14.0,51,0.00,,,0.03,788.000000,,2013-04-01 18:53:00,
2013-04-01 14:03:00,57.0,39.0,-100.00,NNW,337,7.0,14.0,51,0.00,,,0.03,788.000000,,2013-04-01 19:03:00,
2013-04-01 14:12:00,57.0,39.0,-100.00,NNW,337,7.0,14.0,51,0.00,,,0.03,788.000000,,2013-04-01 19:12:00,
2013-04-01 14:43:00,58.0,36.0,-100.00,NNW,334,7.0,16.0,44,0.00,,,0.00,772.000000,,2013-04-01 19:43:00,
2013-04-01 14:53:00,58.0,36.0,-100.00,NNW,334,7.0,16.0,44,0.00,,,0.00,772.000000,,2013-04-01 19:53:00,
2013-04-01 15:02:00,58.0,36.0,-100.00,NNW,334,7.0,16.0,44,0.00,,,0.00,772.000000,,2013-04-01 20:02:00,
2013-04-01 15:12:00,58.0,36.0,-100.00,NNW,334,7.0,16.0,44,0.00,,,0.00,772.000000,,2013-04-01 20:12:00,
2013-04-01 15:43:00,59.0,40.0,-100.00,NNW,336,8.0,17.0,49,0.00,,,0.00,618.000000,,2013-04-01 20:43:00,
2013-04-01 15:52:00,59.0,40.0,-100.00,NNW,336,8.0,17.0,49,0.00,,,0.00,618.000000,,2013-04-01 20:52:00,
2013-04-01 16:02:00,59.0,40.0,-100.00,NNW,336,8.0,17.0,49,0.00,,,0.00,618.000000,,2013-04-01 21:02:00,
2013-04-01 16:12:00,59.0,40.0,-100.00,NNW,336,8.0,17.0,49,0.00,,,0.00,618.000000,,2013-04-01 21:12:00,
2013-04-01 16:44:00,57.0,38.0,-100.00,NNW,328,10.0,19.0,49,0.00,,,0.00,461.000000,,2013-04-01 21:44:00,
2013-04-01 16:53:00,57.0,38.0,-100.00,NNW,328,10.0,19.0,49,0.00,,,0.00,461.000000,,2013-04-01 21:53:00,
2013-04-01 17:02:00,57.0,38.0,-100.00,NNW,328,10.0,19.0,49,0.00,,,0.00,461.000000,,2013-04-01 22:02:00,
2013-04-01 17:12:00,57.0,38.0,-100.00,NNW,328,10.0,19.0,49,0.00,,,0.00,461.000000,,2013-04-01 22:12:00,
2013-04-01 17:43:00,57.0,37.0,-100.00,North,4,11.0,20.0,47,0.00,,,0.00,365.000000,,2013-04-01 22:43:00,
2013-04-01 17:52:00,57.0,37.0,-100.00,North,4,11.0,20.0,47,0.00,,,0.00,365.000000,,2013-04-01 22:52:00,
2013-04-01 18:02:00,57.0,37.0,-100.00,North,4,11.0,20.0,47,0.00,,,0.00,365.000000,,2013-04-01 23:02:00,
2013-04-01 18:12:00,57.0,37.0,-100.00,North,4,11.0,20.0,47,0.00,,,0.00,365.000000,,2013-04-01 23:12:00,
2013-04-01 18:43:00,54.0,35.0,-100.00,NNW,347,10.0,20.0,48,0.00,,,0.00,194.000000,,2013-04-01 23:43:00,
2013-04-01 18:53:00,54.0,35.0,-100.00,NNW,347,10.0,20.0,48,0.00,,,0.00,194.000000,,2013-04-01 23:53:00,
2013-04-01 19:03:00,54.0,35.0,-100.00,NNW,347,10.0,20.0,48,0.00,,,0.00,194.000000,,2013-04-02 00:03:00,
2013-04-01 19:12:00,54.0,35.0,-100.00,NNW,347,10.0,20.0,48,0.00,,,0.00,194.000000,,2013-04-02 00:12:00,
2013-04-01 19:43:00,50.0,32.0,-100.00,North,350,7.0,16.0,50,0.00,,,0.00,40.000000,,2013-04-02 00:43:00,
2013-04-01 19:53:00,50.0,32.0,-100.00,North,350,7.0,16.0,50,0.00,,,0.00,40.000000,,2013-04-02 00:53:00,
2013-04-01 20:02:00,50.0,32.0,-100.00,North,350,7.0,16.0,50,0.00,,,0.00,40.000000,,2013-04-02 01:02:00,
2013-04-01 20:12:00,50.0,32.0,-100.00,North,350,7.0,16.0,50,0.00,,,0.00,40.000000,,2013-04-02 01:12:00,
2013-04-01 20:43:00,47.0,31.0,-100.00,NNE,23,6.0,9.0,53,0.00,,,0.00,0.000000,,2013-04-02 01:43:00,
2013-04-01 20:53:00,47.0,31.0,-100.00,NNE,23,6.0,9.0,53,0.00,,,0.00,0.000000,,2013-04-02 01:53:00,
2013-04-01 21:03:00,47.0,31.0,-100.00,NNE,23,6.0,9.0,53,0.00,,,0.00,0.000000,,2013-04-02 02:03:00,
2013-04-01 21:12:00,47.0,31.0,-100.00,NNE,23,6.0,9.0,53,0.00,,,0.00,0.000000,,2013-04-02 02:12:00,
2013-04-01 21:43:00,44.0,29.0,-100.00,North,10,6.0,9.0,56,0.00,,,0.00,0.000000,,2013-04-02 02:43:00,
2013-04-01 21:53:00,44.0,29.0,-100.00,North,10,6.0,9.0,56,0.00,,,0.00,0.000000,,2013-04-02 02:53:00,
2013-04-01 22:02:00,44.0,29.0,-100.00,North,10,6.0,9.0,56,0.00,,,0.00,0.000000,,2013-04-02 03:02:00,
2013-04-01 22:12:00,44.0,29.0,-100.00,North,10,6.0,9.0,56,0.00,,,0.00,0.000000,,2013-04-02 03:12:00,
2013-04-01 22:43:00,42.0,27.0,-100.00,North,7,4.0,9.0,55,0.00,,,0.00,0.000000,,2013-04-02 03:43:00,
2013-04-01 22:53:00,42.0,27.0,-100.00,North,7,4.0,9.0,55,0.00,,,0.00,0.000000,,2013-04-02 03:53:00,
2013-04-01 23:03:00,42.0,27.0,-100.00,North,7,4.0,9.0,55,0.00,,,0.00,0.000000,,2013-04-02 04:03:00,
2013-04-01 23:13:00,42.0,27.0,-100.00,North,7,4.0,9.0,55,0.00,,,0.00,0.000000,,2013-04-02 04:13:00,
2013-04-01 23:43:00,39.0,27.0,-100.00,NW,317,2.0,6.0,62,0.00,,,0.00,0.000000,,2013-04-02 04:43:00,
2013-04-01 23:53:00,39.0,27.0,-100.00,NW,317,2.0,6.0,62,0.00,,,0.00,0.000000,,2013-04-02 04:53:00,